| time (UTC) | temp C | wind direction | speed KPH | gust KPH | rain 1hr cm | rain 24hr cm | rain mn cm | humidity % | barometer mb |
| 20260831080016 | 23 | 0.0 | 4.8 | 0.00 | 0.00 | 0.00 | 91 | 1019.2 | |
| 20260831075016 | 23 | 0.0 | 4.8 | 0.00 | 0.00 | 0.00 | 91 | 1019.1 | |
| 20260831074016 | 23 | 0.0 | 1.6 | 0.00 | 0.00 | 0.00 | 90 | 1019.2 | |
| 20260831073017 | 23 | 0.0 | 6.4 | 0.00 | 0.00 | 0.00 | 91 | 1019.3 | |
| 20260831072016 | 23 | 0.0 | 3.2 | 0.00 | 0.00 | 0.00 | 91 | 1019.3 | |
| 20260831071017 | 23 | 0.0 | 1.6 | 0.00 | 0.00 | 0.00 | 91 | 1019.4 | |
| 20260831070016 | 23 | 0.0 | 3.2 | 0.00 | 0.00 | 0.00 | 91 | 1019.6 | |
| 20260831065016 | 23 | 0.0 | 1.6 | 0.00 | 0.00 | 0.00 | 92 | 1019.4 | |
| 20260831064016 | 23 | 0.0 | 1.6 | 0.00 | 0.00 | 0.00 | 93 | 1019.4 | |
| 20260831063016 | 23 | 0.0 | 0.0 | 0.00 | 0.00 | 0.00 | 94 | 1019.5 | |
| 20260831062016 | 22 | 0.0 | 1.6 | 0.00 | 0.00 | 0.00 | 95 | 1019.6 | |
| 20260831061016 | 22 | 0.0 | 1.6 | 0.00 | 0.00 | 0.00 | 97 | 1019.6 | |
| 20260831060016 | 22 | 0.0 | 0.0 | 0.00 | 0.00 | 0.00 | 97 | 1019.6 | |
| 20260831055036 | 22 | 0.0 | 0.0 | 0.00 | 0.00 | 0.00 | 97 | 1019.8 | |
| 20260831054036 | 22 | 0.0 | 0.0 | 0.00 | 0.00 | 0.00 | 97 | 1019.8 | |
| 20260831053016 | 22 | 0.0 | 0.0 | 0.00 | 0.00 | 0.00 | 97 | 1019.9 | |
| 20260831052017 | 22 | 0.0 | 0.0 | 0.00 | 0.00 | 0.00 | 97 | 1019.9 | |
| 20260831051016 | 22 | 0.0 | 0.0 | 0.00 | 0.00 | 0.00 | 96 | 1020.0 | |
| 20260831050016 | 22 | 0.0 | 0.0 | 0.00 | 0.00 | 0.00 | 96 | 1020.1 | |
| 20260831045036 | 23 | 0.0 | 0.0 | 0.00 | 0.00 | 0.00 | 96 | 1020.1 | |
| 20260831044016 | 23 | 0.0 | 0.0 | 0.00 | 0.00 | 0.00 | 96 | 1020.1 | |
| 20260831043016 | 23 | 0.0 | 0.0 | 0.00 | 0.00 | 0.00 | 96 | 1020.2 | |
| 20260831042016 | 23 | 0.0 | 0.0 | 0.00 | 0.00 | 0.00 | 96 | 1020.2 | |
| 20260831041016 | 23 | 0.0 | 0.0 | 0.00 | 0.00 | 0.00 | 96 | 1020.2 | |
| 20260831040016 | 23 | 0.0 | 0.0 | 0.00 | 0.00 | 0.00 | 96 | 1020.2 | |
| 20260831035015 | 23 | 0.0 | 0.0 | 0.00 | 0.00 | 0.00 | 96 | 1020.1 | |
| 20260831034016 | 23 | 0.0 | 0.0 | 0.00 | 0.00 | 0.00 | 97 | 1020.3 | |
| 20260831033016 | 23 | 0.0 | 0.0 | 0.00 | 0.00 | 0.00 | 97 | 1020.4 | |
| 20260831032016 | 23 | 0.0 | 0.0 | 0.00 | 0.00 | 0.00 | 97 | 1020.4 | |
| 20260831031016 | 23 | 0.0 | 0.0 | 0.00 | 0.00 | 0.00 | 96 | 1020.5 | |
| 20260831030016 | 23 | 0.0 | 0.0 | 0.00 | 0.00 | 0.00 | 96 | 1020.6 | |
| 20260831025015 | 23 | 0.0 | 0.0 | 0.00 | 0.00 | 0.00 | 96 | 1020.6 | |
| 20260831024016 | 23 | 0.0 | 0.0 | 0.00 | 0.00 | 0.00 | 97 | 1020.7 | |
| 20260831023036 | 23 | 0.0 | 0.0 | 0.00 | 0.00 | 0.00 | 96 | 1020.7 | |
| 20260831022016 | 23 | 0.0 | 0.0 | 0.00 | 0.00 | 0.00 | 96 | 1020.7 | |
| 20260831021016 | 23 | 0.0 | 0.0 | 0.00 | 0.00 | 0.00 | 96 | 1020.6 | |
| 20260831020016 | 23 | 0.0 | 0.0 | 0.00 | 0.00 | 0.00 | 96 | 1020.6 | |
| 20260831015037 | 23 | 0.0 | 0.0 | 0.00 | 0.00 | 0.00 | 96 | 1020.7 | |
| 20260831014016 | 23 | 0.0 | 0.0 | 0.00 | 0.00 | 0.00 | 95 | 1020.7 | |
| 20260831013017 | 23 | 0.0 | 0.0 | 0.00 | 0.00 | 0.00 | 95 | 1020.6 | |
| 20260831012016 | 23 | 0.0 | 0.0 | 0.00 | 0.00 | 0.00 | 94 | 1020.7 | |
| 20260831011016 | 23 | 0.0 | 0.0 | 0.00 | 0.00 | 0.00 | 94 | 1020.7 | |
| 20260831010036 | 23 | 0.0 | 0.0 | 0.00 | 0.00 | 0.00 | 94 | 1020.6 | |
| 20260831005016 | 24 | 0.0 | 0.0 | 0.00 | 0.00 | 0.00 | 92 | 1020.5 | |
| 20260831004036 | 24 | 0.0 | 0.0 | 0.00 | 0.00 | 0.00 | 92 | 1020.1 | |
| 20260831003016 | 25 | 0.0 | 0.0 | 0.00 | 0.00 | 0.00 | 90 | 1019.8 | |
| 20260831002016 | 25 | 0.0 | 0.0 | 0.00 | 0.00 | 0.00 | 90 | 1019.7 | |
| 20260831001015 | 25 | 0.0 | 0.0 | 0.00 | 0.00 | 0.00 | 88 | 1019.6 | |
| 20260831000036 | 26 | 0.0 | 0.0 | 0.00 | 0.00 | 0.00 | 87 | 1019.7 | |
| 20260830235015 | 26 | 0.0 | 0.0 | 0.00 | 0.00 | 0.00 | 86 | 1019.6 | |
| 20260830234016 | 27 | 0.0 | 0.0 | 0.00 | 0.00 | 0.00 | 83 | 1019.7 | |
| 20260830233015 | 28 | 0.0 | 0.0 | 0.00 | 0.00 | 0.00 | 80 | 1019.9 | |
| 20260830232015 | 29 | 0.0 | 1.6 | 0.00 | 0.00 | 0.00 | 76 | 1020.1 | |
| 20260830231016 | 30 | 0.0 | 3.2 | 0.00 | 0.00 | 0.00 | 70 | 1019.8 | |
| 20260830230015 | 31 | 0.0 | 1.6 | 0.00 | 0.00 | 0.00 | 71 | 1019.9 | |
| 20260830225015 | 32 | 0.0 | 0.0 | 0.00 | 0.00 | 0.00 | 67 | 1019.8 | |
| 20260830224015 | 32 | 0.0 | 3.2 | 0.00 | 0.00 | 0.00 | 67 | 1019.8 | |
| 20260830223037 | 32 | 270 | 3.2 | 6.4 | 0.00 | 0.00 | 0.00 | 64 | 1019.8 |
| 20260830222016 | 32 | 293 | 1.6 | 8.0 | 0.00 | 0.00 | 0.00 | 63 | 1019.8 |
| 20260830221015 | 32 | 270 | 1.6 | 9.7 | 0.00 | 0.00 | 0.00 | 65 | 1019.9 |
| 20260830220015 | 33 | 270 | 1.6 | 3.2 | 0.00 | 0.00 | 0.00 | 62 | 1019.9 |
| 20260830215015 | 33 | 0.0 | 3.2 | 0.00 | 0.00 | 0.00 | 64 | 1019.8 | |
| 20260830214015 | 33 | 0.0 | 3.2 | 0.00 | 0.00 | 0.00 | 62 | 1019.8 | |
| 20260830213016 | 32 | 270 | 1.6 | 6.4 | 0.00 | 0.00 | 0.00 | 62 | 1019.8 |
| 20260830212015 | 32 | 293 | 1.6 | 4.8 | 0.00 | 0.00 | 0.00 | 63 | 1019.6 |
| 20260830211015 | 33 | 0.0 | 3.2 | 0.00 | 0.00 | 0.00 | 65 | 1019.6 | |
| 20260830210016 | 32 | 293 | 1.6 | 4.8 | 0.00 | 0.00 | 0.00 | 64 | 1019.6 |
| 20260830205015 | 32 | 270 | 1.6 | 4.8 | 0.00 | 0.00 | 0.00 | 64 | 1019.7 |
| 20260830204015 | 33 | 270 | 1.6 | 6.4 | 0.00 | 0.00 | 0.00 | 63 | 1019.8 |
| 20260830203016 | 32 | 338 | 1.6 | 4.8 | 0.00 | 0.00 | 0.00 | 63 | 1019.9 |
| 20260830202015 | 32 | 113 | 1.6 | 6.4 | 0.00 | 0.00 | 0.00 | 64 | 1020.1 |
| 20260830201015 | 32 | 270 | 3.2 | 11.3 | 0.00 | 0.00 | 0.00 | 67 | 1020.0 |
| 20260830200015 | 32 | 270 | 1.6 | 4.8 | 0.00 | 0.00 | 0.00 | 65 | 1020.1 |
| 20260830195015 | 32 | 90 | 1.6 | 9.7 | 0.00 | 0.00 | 0.00 | 67 | 1020.4 |
| 20260830194016 | 32 | 270 | 1.6 | 8.0 | 0.00 | 0.00 | 0.00 | 66 | 1020.6 |
| 20260830193015 | 31 | 0.0 | 3.2 | 0.00 | 0.00 | 0.00 | 67 | 1020.9 | |
| 20260830192015 | 31 | 270 | 4.8 | 9.7 | 0.00 | 0.00 | 0.00 | 67 | 1021.1 |
| 20260830191015 | 32 | 270 | 1.6 | 6.4 | 0.00 | 0.00 | 0.00 | 66 | 1021.2 |
| 20260830190015 | 31 | 45 | 1.6 | 6.4 | 0.00 | 0.00 | 0.00 | 68 | 1021.3 |
| 20260830185015 | 32 | 270 | 1.6 | 8.0 | 0.00 | 0.00 | 0.00 | 66 | 1021.4 |
| 20260830184015 | 32 | 293 | 1.6 | 4.8 | 0.00 | 0.00 | 0.00 | 68 | 1021.6 |
| 20260830183015 | 32 | 270 | 3.2 | 11.3 | 0.00 | 0.00 | 0.00 | 67 | 1021.7 |
| 20260830182015 | 32 | 293 | 1.6 | 3.2 | 0.00 | 0.00 | 0.00 | 66 | 1021.8 |
| 20260830181015 | 31 | 0 | 1.6 | 3.2 | 0.00 | 0.00 | 0.00 | 70 | 1022.0 |
| 20260830180015 | 31 | 270 | 1.6 | 6.4 | 0.00 | 0.00 | 0.00 | 70 | 1022.0 |
| 20260830175015 | 31 | 270 | 1.6 | 9.7 | 0.00 | 0.00 | 0.00 | 69 | 1022.2 |
| 20260830174015 | 31 | 68 | 1.6 | 3.2 | 0.00 | 0.00 | 0.00 | 70 | 1022.3 |
| 20260830173015 | 31 | 90 | 1.6 | 6.4 | 0.00 | 0.00 | 0.00 | 71 | 1022.3 |
| 20260830172015 | 31 | 248 | 1.6 | 6.4 | 0.00 | 0.00 | 0.00 | 71 | 1022.5 |
| 20260830171015 | 30 | 270 | 3.2 | 12.9 | 0.00 | 0.00 | 0.00 | 72 | 1022.8 |
| 20260830170015 | 30 | 23 | 1.6 | 3.2 | 0.00 | 0.00 | 0.00 | 73 | 1022.8 |
| 20260830165015 | 30 | 270 | 1.6 | 9.7 | 0.00 | 0.00 | 0.00 | 73 | 1022.9 |
| 20260830164017 | 30 | 293 | 1.6 | 6.4 | 0.00 | 0.00 | 0.00 | 73 | 1023.0 |
| 20260830163015 | 29 | 270 | 3.2 | 6.4 | 0.00 | 0.00 | 0.00 | 73 | 1023.1 |
| 20260830162015 | 29 | 293 | 3.2 | 11.3 | 0.00 | 0.00 | 0.00 | 73 | 1023.2 |
| 20260830161017 | 29 | 270 | 1.6 | 6.4 | 0.00 | 0.00 | 0.00 | 73 | 1023.3 |
| 20260830160017 | 28 | 315 | 1.6 | 4.8 | 0.00 | 0.00 | 0.00 | 76 | 1023.4 |
| 20260830155017 | 28 | 68 | 1.6 | 4.8 | 0.00 | 0.00 | 0.00 | 76 | 1023.5 |
| 20260830154037 | 28 | 293 | 1.6 | 9.7 | 0.00 | 0.00 | 0.00 | 77 | 1023.6 |
| 20260830153017 | 28 | 270 | 3.2 | 9.7 | 0.00 | 0.00 | 0.00 | 77 | 1023.7 |
| 20260830152037 | 28 | 68 | 1.6 | 4.8 | 0.00 | 0.00 | 0.00 | 78 | 1023.7 |
| 20260830151015 | 27 | 270 | 1.6 | 4.8 | 0.00 | 0.00 | 0.00 | 78 | 1023.6 |
| 20260830150017 | 28 | 270 | 1.6 | 6.4 | 0.00 | 0.00 | 0.00 | 77 | 1023.7 |
| 20260830145017 | 27 | 338 | 1.6 | 6.4 | 0.00 | 0.00 | 0.00 | 79 | 1023.7 |
| 20260830144017 | 27 | 68 | 3.2 | 9.7 | 0.00 | 0.00 | 0.00 | 82 | 1023.8 |
| 20260830143037 | 26 | 270 | 1.6 | 4.8 | 0.00 | 0.00 | 0.00 | 83 | 1023.8 |
| 20260830142037 | 26 | 0.0 | 1.6 | 0.00 | 0.00 | 0.00 | 86 | 1023.7 | |
| 20260830141037 | 26 | 270 | 1.6 | 8.0 | 0.00 | 0.00 | 0.00 | 87 | 1023.8 |
| 20260830140018 | 25 | 0.0 | 3.2 | 0.00 | 0.00 | 0.00 | 88 | 1023.8 | |
| 20260830135017 | 26 | 270 | 1.6 | 6.4 | 0.00 | 0.00 | 0.00 | 87 | 1024.1 |
| 20260830134037 | 26 | 270 | 1.6 | 4.8 | 0.00 | 0.00 | 0.00 | 88 | 1024.3 |
| 20260830133017 | 26 | 0.0 | 1.6 | 0.00 | 0.00 | 0.00 | 90 | 1024.4 | |
| 20260830132017 | 25 | 0.0 | 3.2 | 0.00 | 0.00 | 0.00 | 94 | 1024.5 | |
| 20260830131037 | 23 | 90 | 1.6 | 4.8 | 0.00 | 0.00 | 0.00 | 96 | 1024.5 |
| 20260830130017 | 23 | 0.0 | 4.8 | 0.00 | 0.00 | 0.00 | 99 | 1024.5 | |
| 20260830125017 | 22 | 0.0 | 1.6 | 0.00 | 0.00 | 0.00 | 100 | 1024.6 | |
| 20260830124017 | 22 | 0.0 | 1.6 | 0.00 | 0.00 | 0.00 | 100 | 1024.7 | |
| 20260830123017 | 22 | 0.0 | 4.8 | 0.00 | 0.00 | 0.00 | 100 | 1024.6 | |
| 20260830122017 | 21 | 0.0 | 1.6 | 0.00 | 0.00 | 0.00 | 100 | 1024.6 | |
| 20260830121016 | 21 | 0.0 | 0.0 | 0.00 | 0.00 | 0.00 | 100 | 1024.6 | |
| 20260830120016 | 21 | 0.0 | 3.2 | 0.00 | 0.00 | 0.00 | 100 | 1024.6 | |
| 20260830115017 | 20 | 0.0 | 1.6 | 0.00 | 0.00 | 0.00 | 100 | 1024.5 | |
| 20260830114016 | 20 | 0.0 | 0.0 | 0.00 | 0.00 | 0.00 | 100 | 1024.4 | |
| 20260830113017 | 20 | 0.0 | 0.0 | 0.00 | 0.00 | 0.00 | 100 | 1024.4 | |
| 20260830112017 | 20 | 0.0 | 0.0 | 0.00 | 0.00 | 0.00 | 100 | 1024.4 | |
| 20260830111017 | 19 | 0.0 | 0.0 | 0.00 | 0.00 | 0.00 | 100 | 1024.3 | |
| 20260830110057 | 19 | 0.0 | 0.0 | 0.00 | 0.00 | 0.00 | 100 | 1024.2 | |
| 20260830105017 | 19 | 0.0 | 0.0 | 0.00 | 0.00 | 0.00 | 100 | 1024.3 | |
| 20260830104017 | 19 | 0.0 | 0.0 | 0.00 | 0.00 | 0.00 | 100 | 1024.2 | |
| 20260830103017 | 19 | 0.0 | 0.0 | 0.00 | 0.00 | 0.00 | 100 | 1024.1 | |
| 20260830102016 | 18 | 0.0 | 0.0 | 0.00 | 0.00 | 0.00 | 100 | 1024.0 | |
| 20260830101016 | 18 | 0.0 | 0.0 | 0.00 | 0.00 | 0.00 | 100 | 1023.9 | |
| 20260830100017 | 18 | 0.0 | 0.0 | 0.00 | 0.00 | 0.00 | 100 | 1023.9 | |
| 20260830095017 | 18 | 0.0 | 0.0 | 0.00 | 0.00 | 0.00 | 100 | 1023.8 | |
| 20260830094017 | 18 | 0.0 | 0.0 | 0.00 | 0.00 | 0.00 | 100 | 1023.6 | |
| 20260830093016 | 18 | 0.0 | 0.0 | 0.00 | 0.00 | 0.00 | 100 | 1023.8 | |
| 20260830092016 | 18 | 0.0 | 0.0 | 0.00 | 0.00 | 0.00 | 100 | 1023.8 | |
| 20260830091017 | 18 | 0.0 | 0.0 | 0.00 | 0.00 | 0.00 | 100 | 1023.7 | |
| 20260830090017 | 17 | 0.0 | 0.0 | 0.00 | 0.00 | 0.00 | 100 | 1023.6 | |
| 20260830085017 | 17 | 0.0 | 0.0 | 0.00 | 0.00 | 0.00 | 100 | 1023.8 | |
| 20260830084017 | 17 | 0.0 | 0.0 | 0.00 | 0.00 | 0.00 | 99 | 1023.8 | |
| 20260830083017 | 17 | 0.0 | 0.0 | 0.00 | 0.00 | 0.00 | 99 | 1023.7 | |
| 20260830082016 | 17 | 0.0 | 0.0 | 0.00 | 0.00 | 0.00 | 99 | 1023.7 | |
| 20260830081016 | 17 | 0.0 | 0.0 | 0.00 | 0.00 | 0.00 | 99 | 1023.8 |